Regional Weather Roundup
Issued by NWS Albany, NY

Home | Current Version | Previous Version | Graphics & Text | Print | Product List | Glossary Off
Versions: 1 2 3 4 5 6 7 8 9 10 11 12 13 14 15 16 17 18 19 20 21 22 23 24 25 26 27 28 29 30 31 32 33 34 35 36 37 38 39 40 41 42 43 44 45 46 47 48 49

000
ASUS41 KALY 281210
RWRALY

NEW YORK STATE HOURLY WEATHER ROUNDUP
NATIONAL WEATHER SERVICE ALBANY NY
700 AM EST WED JAN 28 2015

NOTE: "FAIR" INDICATES FEW OR NO CLOUDS BELOW 12,000 FEET WITH NO
SIGNIFICANT WEATHER AND/OR NO OBSTRUCTIONS TO VISIBILITY.

NYZ032-033-038>043-046>054-057>066-NYZ062>081-281300-
EAST


CITY           SKY/WX    TMP DP  RH WIND       PRES   REMARKS
ALBANY         FLURRIES  11  -2  56 N10       30.05R WCI  -3
GLENS FALLS    FLURRIES  10   3  73 NE6       30.04R WCI   0
POUGHKEEPSIE   CLOUDY    15   4  61 NE6       29.98R WCI   6
NEWBURGH       PTCLDY    12   1  62 NW6       29.97R WCI   3
MONTGOMERY     CLEAR     16  -1  47 NW8       29.96R WCI   5
WHITE PLAINS   PTCLDY    14   1  56 NW13      29.92R WCI   0
ISLIP          MOCLDY    18   5  57 N28G37    29.91R WCI  -1
NEW YORK CITY  PTCLDY    18   2  49 NW15      29.98R WCI   4
CENTRAL PARK   CLEAR     17  -2  43 NW9       30.00R WCI   6
$$

NYZ005>009-017-018-044>046-055-056-281300-
CENTRAL


CITY           SKY/WX    TMP DP  RH WIND       PRES   REMARKS
FULTON         PTCLDY     5   0  79 CALM      30.16R
SYRACUSE       PTCLDY     1  -3  83 CALM      30.15R
ROME           PTCLDY     2  -6  69 NW5       30.15R WCI  -8
ELMIRA         PTCLDY    -3  -6  87 SW6       30.13R WCI -15
BINGHAMTON     PTCLDY     7   2  80 NW10      29.99R WCI  -8
MONTICELLO     CLEAR      9   0  66 NW14G29   29.94R WCI  -8
$$

NYZ026>034-041>043-281300-
NORTH


CITY           SKY/WX    TMP DP  RH WIND       PRES   REMARKS
WATERTOWN        N/A    N/A N/A N/A MISG      30.17R
FORT DRUM      NOT AVBL
MASSENA        PTCLDY     3  -6  66 W6        30.16R WCI  -8
SARANAC LAKE   CLOUDY     2  -4  76 CALM      29.94R
PLATTSBURGH    MOCLDY     6  -1  73 N3        30.08R
$$

NYZ001>004-010>016-019>021-281300-
WEST


CITY           SKY/WX    TMP DP  RH WIND       PRES   REMARKS
NIAGARA FALLS  PTCLDY     6   0  76 SW6       30.23R WCI  -4
BUFFALO        PTCLDY     9   4  80 SW7       30.22R WCI  -2
DUNKIRK        PTCLDY     5   3  91 SW6       30.25R WCI  -6
JAMESTOWN      MOCLDY     5   1  85 W5        30.14R WCI  -4
WELLSVILLE     PTCLDY     8   2  76 NW15      30.07R WCI  -9
ROCHESTER      PTCLDY     7   2  80 W8        30.19R WCI  -6
PENN YAN       PTCLDY    11   3  70 VRB5      30.12R WCI   3
$$

             KEY
       WCI = WIND CHILL INDEX
       VSB = VISIBILITY
       HX  = HEAT INDEX
$$



USA.gov is the U.S. government's official web portal to all federal, state and local government web resources and services.